Regional Weather Roundup
Issued by NWS

Home | Current Version | Previous Version | Graphics & Text | Print | Product List | Glossary On
Versions: 1 2 3 4 5 6 7 8 9 10 11 12 13 14 15 16 17 18 19 20 21 22 23 24 25 26 27 28 29 30 31 32 33 34 35 36 37 38 39 40 41 42 43 44 45 46 47 48 49 50
000
ASUS43 KOAX 231102
RWRNE

WEATHER ROUNDUP FOR NEBRASKA
NATIONAL WEATHER SERVICE OMAHA NE
600 AM CDT WED JUL 23 2014

NOTES: SATELLITE DATA IS BEING USED TO AUGMENT CLOUD COVER ABOVE
       12000 FEET.
       "FAIR" INDICATES FEW OR NO CLOUDS BELOW 12,000 FEET WITH NO
       SIGNIFICANT WEATHER AND/OR OBSTRUCTIONS TO VISIBILITY.

  * THESE STATIONS DO NOT REPORT WEATHER SUCH AS RAIN...SNOW OR FOG.

NEZ001>004-019>022-054>056-231200-
NEBRASKA PANHANDLE

CITY           SKY/WX    TMP DP  RH WIND       PRES   REMARKS
SCOTTSBLUFF    MOCLDY    67  64  90 E14       30.32R
ALLIANCE       CLOUDY    67  59  75 NE17G26   30.38R
CHADRON        PTCLDY    68  58  70 S12       30.28F
KIMBALL        CLOUDY    66  64  91 SE15      30.32R
SIDNEY         CLOUDY    68  63  84 SE10      30.32F
$$

NEZ057>060-069>072-079>082-231200-
SOUTHWEST NEBRASKA

CITY           SKY/WX    TMP DP  RH WIND       PRES   REMARKS
NORTH PLATTE   PTCLDY    66  64  93 E9        30.28S
IMPERIAL       PTCLDY    68  65  90 SE10      30.28S
LEXINGTON      LGT RAIN  67  66  94 E9        30.27F
MCCOOK         MOCLDY    68  65  90 NE5       30.26S
OGALLALA       MOCLDY    64  60  88 E3        30.29S
$$

NEZ005>010-023>029-035>040-094-231200-
NORTH CENTRAL NEBRASKA

CITY           SKY/WX    TMP DP  RH WIND       PRES   REMARKS
VALENTINE      CLOUDY    68  62  81 CALM      30.34R
AINSWORTH      CLOUDY    65  60  86 W10       30.38R
BROKEN BOW     PTCLDY    63  61  93 E5        30.29S
O`NEILL        MOCLDY    64  57  78 E6        30.29R
ORD            PTCLDY    59  58  96 SW5       30.28R
THEDFORD       CLOUDY    66  64  91 N10       30.38R
$$

NEZ041-046>049-061>064-073>077-083>087-231200-
SOUTH CENTRAL NEBRASKA

CITY           SKY/WX    TMP DP  RH WIND       PRES   REMARKS
GRAND ISLAND   CLEAR     64  60  87 W3        30.29R
AURORA         CLEAR     64  63  94 CALM      30.26R
HASTINGS       PTCLDY    67  61  81 CALM      30.28R
HEBRON         MOCLDY    71  65  82 NE6       30.22R
HOLDREGE       CLOUDY    67  64  89 NE3       30.28R
KEARNEY *      MOCLDY    66  63  88 E6        30.28F
YORK           CLEAR     63  63 100 NE5       30.25S
$$

NEZ011>018-030>034-042>045-231200-
NORTHEAST NEBRASKA

CITY           SKY/WX    TMP DP  RH WIND       PRES   REMARKS
NORFOLK        CLEAR     61  55  81 CALM      30.26R
ALBION         CLEAR     59  56  90 CALM      30.28R
BLAIR          CLEAR     64  52  64 N5        30.22R
COLUMBUS *     CLEAR     59  54  82 NW5       30.28R
FREMONT        CLEAR     62  58  86 W3        30.24R
TEKAMAH        CLEAR     60  57  89 NW6       30.23R
WAYNE          CLEAR     57  55  92 CALM      30.27R
$$

NEZ050>053-065>068-078-088>093-231200-
SOUTHEAST NEBRASKA

CITY           SKY/WX    TMP DP  RH WIND       PRES   REMARKS
LINCOLN        CLEAR     66  60  81 N7        30.24R
OMAHA EPPLEY   PTCLDY    63  57  81 N6        30.22R
BEATRICE       CLEAR     64  61  90 N5        30.23R
FALLS CITY     CLEAR     67  63  87 N6        30.17R
NEBRASKA CITY  CLEAR     65  59  82 NE8       30.20R
PLATTSMOUTH    CLEAR     65  57  74 N5        30.22R
$$

NEZ044-045-051>053-067-231200-
OMAHA AREA

CITY           SKY/WX    TMP DP  RH WIND       PRES   REMARKS
OMAHA EPPLEY   PTCLDY    63  57  81 N6        30.22R
BLAIR          CLEAR     64  52  64 N5        30.22R
FREMONT        CLEAR     62  58  86 W3        30.24R
MILLARD        CLEAR     68  58  71 CALM      30.22R
OFFUTT AFB     CLEAR     66  60  79 N3        30.21R
PLATTSMOUTH    CLEAR     65  57  74 N5        30.22R
WAHOO          FAIR      62  58  88 NW6       30.24R
$$



USA.gov is the U.S. government's official web portal to all federal, state and local government web resources and services.